Location: Wyoming Infrared Observatory
(41.0971°N, 105.9765°W)
Time: 10:01:17
(UTC-06:00)

Amateur Radio Satellites - All Passes

Search period start: 31 August 2016 09:31
Search period end: 01 September 2016 09:31
Location: Wyoming Infrared Observatory, 41.0971°N, 105.9765°W

Satellite Date Start Highest point End Downlink Frequencies (MHz)
Time Altitude Azimuth
BEESAT 3 31 Aug 09:31:58 09:35:49 59° 304° (NW) 09:39:44 437.485
FUNcube-1 31 Aug 09:32:38 09:35:51 22° 94° (E) 09:39:03 145.935
AAUSAT CUBESAT 2 31 Aug 09:36:12 09:40:23 71° 101° (ESE) 09:44:32 437.432
CANX-2 31 Aug 09:47:16 09:50:56 29° 290° (WNW) 09:54:36 2200.000
UNISAT 6 31 Aug 09:48:03 09:51:58 29° 69° (ENE) 09:55:51 437.425
COMPASS 1 31 Aug 09:48:25 09:52:35 65° 285° (WNW) 09:56:44 437.405
UWE-3 31 Aug 09:50:35 09:54:43 61° 101° (E) 09:58:47 435.000/436.395/437.385
CUTE 1.7 + AOD 2 31 Aug 09:52:32 09:56:12 29° 290° (WNW) 09:59:53 437.475
ZACube-1 31 Aug 09:55:54 09:59:52 43° 99° (E) 10:03:48 437.345
CUBEBUG 2 31 Aug 10:01:42 10:05:51 64° 286° (WNW) 10:09:57 437.445
HUMSAT D 31 Aug 10:08:30 10:09:42 11° 90° (E) 10:10:54 437.325/437.525
DANDE 31 Aug 10:10:26 10:15:41 32° 75° (ENE) 10:22:07 436.750
AIST 1 31 Aug 10:11:23 10:15:02 26° 286° (WNW) 10:18:45
ISS 31 Aug 10:12:48 10:14:50 15° 349° (N) 10:16:52 145.825
CINEMA 3 31 Aug 10:12:52 10:15:30 16° 297° (WNW) 10:18:04 145.822/145.860
CUSAT 1 31 Aug 10:16:39 10:23:32 82° 80° (E) 10:31:30 437.405
ANTELSAT 31 Aug 10:24:08 10:28:40 70° 75° (ENE) 10:33:08 437.575/2403.000
AIST 2 31 Aug 10:33:31 10:34:54 11° 108° (ESE) 10:36:17 435.215
DELFI C3 31 Aug 10:40:17 10:44:15 58° 101° (E) 10:48:12 145.870
TIGRISAT 31 Aug 10:53:55 10:58:26 59° 259° (W) 11:02:53 435.000
Oscar 11 31 Aug 10:55:04 10:59:06 39° 288° (WNW) 11:03:08 145.826/435.025
HO-68 31 Aug 10:59:12 11:04:21 22° 303° (WNW) 11:09:29 435.675
BEESAT 2 31 Aug 11:01:30 11:04:08 17° 316° (NW) 11:06:47 435.950
QB50P1 31 Aug 11:06:39 11:10:19 28° 69° (ENE) 11:14:00 145.935-145.965
RS-15 31 Aug 11:07:26 11:19:31 63° 246° (WSW) 11:31:20 29.354- 29.394
FUNcube-1 31 Aug 11:08:31 11:12:06 29° 290° (WNW) 11:15:41 145.935
PCSat 31 Aug 11:12:14 11:17:31 58° 114° (ESE) 11:22:51 145.827
AAUSAT CUBESAT 2 31 Aug 11:14:22 11:15:15 11° 298° (WNW) 11:16:10 437.432
GONETS M04 31 Aug 11:15:36 11:23:27 39° 86° (E) 11:31:22
POPSAT HIP 1 31 Aug 11:16:48 11:20:42 36° 71° (ENE) 11:24:37 437.405
M-CUBED/EXP-1 PRIME 31 Aug 11:21:14 11:22:22 11° 94° (E) 11:23:28 437.505
UNISAT 6 31 Aug 11:24:47 11:28:38 26° 264° (W) 11:32:27 437.425
Cosmos 2499 31 Aug 11:25:55 11:32:50 33° 87° (E) 11:39:22 435.465 / 435.565
UWE-3 31 Aug 11:29:08 11:30:38 12° 297° (WNW) 11:32:09 435.000/436.395/437.385
ZACube-1 31 Aug 11:33:17 11:35:48 16° 295° (WNW) 11:38:19 437.345
DUCHIFAT 1 31 Aug 11:39:09 11:43:19 57° 74° (ENE) 11:47:30 145.980
HUMSAT D 31 Aug 11:41:39 11:45:40 57° 285° (WNW) 11:49:41 437.325/437.525
AISAT 31 Aug 11:46:08 11:48:08 13° 91° (E) 11:50:07 437.250
QB50P2 31 Aug 11:47:52 11:52:09 88° 74° (ENE) 11:56:26 145.880/145.840
POLYITAN 1 31 Aug 11:50:22 11:54:39 89° 60° (ENE) 11:58:56 437.675
ISS 31 Aug 11:50:22 11:52:19 15° 10° (N) 11:54:17 145.825
DANDE 31 Aug 11:52:48 11:58:27 44° 265° (W) 12:05:28 436.750
ESTCUBE 1 31 Aug 11:53:39 11:57:37 29° 96° (E) 12:01:33 437.505/2401.250
NANOSAT C BR1 31 Aug 11:54:59 11:59:15 87° 256° (WSW) 12:03:32 145.865
50 SAT 31 Aug 11:55:25 11:57:08 13° 92° (E) 11:58:50 437.505
JAS-2 31 Aug 11:56:52 12:01:54 49° 69° (ENE) 12:07:22 435.910
CUSAT 1 31 Aug 12:00:14 12:05:01 20° 274° (W) 12:10:13 437.405
ANTELSAT 31 Aug 12:04:35 12:05:48 11° 270° (W) 12:07:00 437.575/2403.000
AIST 2 31 Aug 12:08:45 12:12:49 64° 304° (WNW) 12:16:57 435.215
BUGSAT 1 31 Aug 12:16:49 12:21:00 65° 75° (ENE) 12:25:14 437.445
DELFI C3 31 Aug 12:17:08 12:18:36 12° 296° (WNW) 12:20:02 145.870
SPROUT 31 Aug 12:21:19 12:23:45 15° 92° (E) 12:26:10 437.525
CUBEBUG 1 31 Aug 12:22:15 12:26:23 38° 98° (E) 12:30:28 437.445
Oscar 19 31 Aug 12:29:04 12:32:43 20° 63° (ENE) 12:36:23 437.125/150
VELOX 1 31 Aug 12:31:15 12:35:25 37° 98° (E) 12:39:33 145.980
DX 1 31 Aug 12:34:27 12:38:11 27° 96° (E) 12:41:52 434.975-435.025
Gurwin Techsat 1B 31 Aug 12:36:36 12:37:58 11° 57° (ENE) 12:39:21 435.225
QB50P1 31 Aug 12:42:34 12:46:03 24° 265° (W) 12:49:34 145.935-145.965
AUBIESAT-1 31 Aug 12:43:53 12:47:50 86° 289° (WNW) 12:51:28 437.475
M-CUBED/EXP-1 PRIME 31 Aug 12:53:25 12:57:20 52° 292° (WNW) 13:00:55 437.505
POPSAT HIP 1 31 Aug 12:53:30 12:56:35 19° 266° (W) 12:59:41 437.405
PCSat 31 Aug 12:57:01 13:01:17 23° 313° (NW) 13:05:36 145.827
UKube-1 31 Aug 13:06:24 13:10:36 46° 100° (E) 13:14:45 .
O/OREOS (USA 219) 31 Aug 13:09:19 13:13:33 43° 106° (ESE) 13:17:51 437.305
GONETS M04 31 Aug 13:11:45 13:20:04 46° 286° (WNW) 13:28:31
DUCHIFAT 1 31 Aug 13:17:42 13:19:20 12° 269° (W) 13:21:00 145.980
Cosmos 2499 31 Aug 13:18:03 13:25:43 47° 284° (WNW) 13:32:53 435.465 / 435.565
AISAT 31 Aug 13:20:35 13:24:58 59° 287° (WNW) 13:29:20 437.250
AO-85 31 Aug 13:22:02 13:26:11 49° 53° (NE) 13:30:04 145.980
RS-15 31 Aug 13:24:58 13:29:18 13° 267° (W) 13:33:36 29.354- 29.394
ISS 31 Aug 13:26:21 13:29:28 39° 29° (NNE) 13:32:35 145.825
50 SAT 31 Aug 13:27:27 13:30:52 39° 287° (WNW) 13:34:17 437.505
ESTCUBE 1 31 Aug 13:30:30 13:34:19 27° 292° (WNW) 13:38:08 437.505/2401.250
JAS-2 31 Aug 13:43:39 13:47:25 20° 269° (W) 13:51:25 435.910
ITAMSAT 1 31 Aug 13:53:02 13:56:18 17° 61° (ENE) 13:59:34 435.822/435.867
SPROUT 31 Aug 13:55:49 13:59:56 46° 288° (WNW) 14:04:00 437.525
BUGSAT 1 31 Aug 13:55:51 13:56:47 11° 270° (W) 13:57:43 437.445
CUBEBUG 1 31 Aug 13:59:09 14:02:24 20° 294° (WNW) 14:05:38 437.445
TISAT 1 31 Aug 13:59:16 14:03:11 37° 98° (E) 14:07:04 437.305
Oscar 19 31 Aug 14:06:34 14:11:37 53° 260° (W) 14:16:43 437.125/150
VELOX 1 31 Aug 14:08:19 14:11:38 21° 294° (WNW) 14:14:56 145.980
DX 1 31 Aug 14:10:34 14:14:18 27° 292° (WNW) 14:17:59 434.975-435.025
Gurwin Techsat 1B 31 Aug 14:11:43 14:17:02 80° 75° (ENE) 14:22:22 435.225
BEESAT 31 Aug 14:16:17 14:17:35 11° 89° (E) 14:18:54 436.000
AO-7 31 Aug 14:42:55 14:50:27 40° 60° (ENE) 14:57:58 29.400- 29.500
UKube-1 31 Aug 14:43:32 14:46:15 17° 296° (WNW) 14:48:59 .
O/OREOS (USA 219) 31 Aug 14:49:51 14:53:10 20° 304° (NW) 14:56:31 437.305
ISS 31 Aug 15:03:04 15:05:49 25° 226° (SW) 15:08:34 145.825
AO-85 31 Aug 15:03:52 15:06:05 14° 252° (WSW) 15:08:15 145.980
ITUPSAT 1 31 Aug 15:04:05 15:08:28 35° 98° (E) 15:12:49 437.325
YUBILEINY 31 Aug 15:16:50 15:18:40 11° 54° (NE) 15:20:30 435.215
ITAMSAT 1 31 Aug 15:30:07 15:35:15 63° 259° (WSW) 15:40:24 435.822/435.867
SWISSCUBE 31 Aug 15:34:28 15:39:15 83° 103° (ESE) 15:44:01 437.505
TISAT 1 31 Aug 15:35:38 15:38:33 18° 294° (WNW) 15:41:27 437.305
BEESAT 31 Aug 15:51:07 15:55:53 75° 286° (WNW) 16:00:38 436.000
Gurwin Techsat 1B 31 Aug 15:55:26 15:57:34 12° 271° (W) 15:59:43 435.225
BEESAT 3 31 Aug 16:14:20 16:14:40 10° 38° (NE) 16:15:01 437.485
KKS-1 31 Aug 16:25:27 16:29:17 28° 96° (E) 16:33:05 437.445
AO-7 31 Aug 16:35:00 16:43:00 49° 259° (WSW) 16:51:03 29.400- 29.500
ITUPSAT 1 31 Aug 16:42:15 16:46:07 25° 294° (WNW) 16:49:59 437.325
HORYU 2 31 Aug 16:45:10 16:49:17 38° 70° (ENE) 16:53:23 437.375
STARS 31 Aug 16:49:23 16:52:57 24° 95° (E) 16:56:29 437.465
NOAA 15 31 Aug 16:52:12 16:54:52 14° 59° (ENE) 16:57:33 137.62
Cosmos 2491 31 Aug 16:54:01 17:00:25 23° 80° (E) 17:06:48 435.465 / 435.565
Cubesat XI-IV 31 Aug 16:55:58 16:57:51 12° 58° (ENE) 16:59:44 437.490
CUBESAT XI-V 31 Aug 17:00:06 17:01:39 11° 89° (E) 17:03:12 437.345
MOZHAYETS 4 31 Aug 17:02:42 17:07:17 84° 287° (WNW) 17:11:53
CUTE-I 31 Aug 17:05:17 17:08:07 15° 60° (ENE) 17:10:58 437.470
YUBILEINY 31 Aug 17:09:05 17:17:43 58° 77° (ENE) 17:26:14 435.215
SWISSCUBE 31 Aug 17:14:42 17:16:21 12° 300° (WNW) 17:18:00 437.505
BRITE-PL 31 Aug 17:14:55 17:19:24 34° 68° (ENE) 17:24:12 437.365/2234.400
BEESAT 2 31 Aug 17:40:16 17:43:53 31° 50° (NE) 17:47:30 435.950
BEESAT 3 31 Aug 17:49:04 17:53:04 74° 58° (ENE) 17:57:00 437.485
DOVE 4 31 Aug 17:51:38 17:55:04 18° 63° (ENE) 17:58:33 437.250
HO-68 31 Aug 17:57:06 17:59:01 11° 48° (NE) 18:00:56 435.675
LilacSat-2 31 Aug 17:58:23 18:01:50 32° 72° (ENE) 18:05:16 437.200
KKS-1 31 Aug 18:02:00 18:05:46 27° 292° (WNW) 18:09:31 437.445
GOMX 1 31 Aug 18:05:38 18:10:37 48° 72° (ENE) 18:15:51 467.674
NOAA 18 31 Aug 18:20:00 18:25:27 62° 72° (ENE) 18:30:54 137.9125
HORYU 2 31 Aug 18:22:41 18:25:57 20° 266° (W) 18:29:13 437.375
Cosmos 2504 31 Aug 18:25:15 18:32:22 61° 79° (E) 18:39:28 435.465 / 435.565
STARS 31 Aug 18:25:28 18:29:18 30° 291° (WNW) 18:33:06 437.465
NOAA 15 31 Aug 18:28:41 18:33:56 80° 257° (WSW) 18:39:15 137.62
Cubesat XI-IV 31 Aug 18:31:45 18:37:05 85° 75° (ENE) 18:42:27 437.490
CUBESAT XI-V 31 Aug 18:34:48 18:39:31 72° 285° (WNW) 18:44:12 437.345
CUTE-I 31 Aug 18:42:10 18:47:30 78° 257° (WSW) 18:52:51 437.470
Cosmos 2491 31 Aug 18:47:35 18:56:17 73° 279° (W) 19:05:06 435.465 / 435.565
BRITE-PL 31 Aug 18:53:30 18:57:51 30° 267° (W) 19:02:31 437.365/2234.400
AIST 2 31 Aug 18:53:40 18:55:02 11° 38° (NE) 18:56:24 435.215
CANX-2 31 Aug 19:05:02 19:07:48 17° 66° (ENE) 19:10:34 2200.000
YUBILEINY 31 Aug 19:06:43 19:13:57 30° 277° (W) 19:21:09 435.215
CUTE 1.7 + AOD 2 31 Aug 19:10:14 19:12:58 17° 66° (ENE) 19:15:44 437.475
BEESAT 2 31 Aug 19:18:21 19:21:34 23° 247° (WSW) 19:24:46 435.950
CUBEBUG 2 31 Aug 19:26:20 19:27:29 11° 62° (ENE) 19:28:38 437.445
DOVE 4 31 Aug 19:27:01 19:32:11 64° 260° (W) 19:37:30 437.250
LilacSat-2 31 Aug 19:33:42 19:36:13 17° 267° (W) 19:38:43 437.200
CINEMA 3 31 Aug 19:35:00 19:39:48 47° 72° (ENE) 19:44:31 145.822/145.860
HO-68 31 Aug 19:38:14 19:45:13 57° 68° (ENE) 19:52:13 435.675
GOMX 1 31 Aug 19:44:57 19:48:56 22° 269° (W) 19:53:04 467.674
PCSat 31 Aug 20:00:10 20:05:24 46° 55° (NE) 20:10:35 145.827
NOAA 18 31 Aug 20:02:53 20:06:30 18° 268° (W) 20:10:07 137.9125
STRAND 1 31 Aug 20:06:42 20:11:41 50° 100° (E) 20:16:38 437.568
SEEDS 31 Aug 20:08:13 20:12:14 51° 74° (ENE) 20:16:18 437.485
Oscar 11 31 Aug 20:15:24 20:17:43 14° 64° (ENE) 20:20:03 145.826/435.025
Cubesat XI-IV 31 Aug 20:16:04 20:17:48 11° 271° (W) 20:19:32 437.490
AIST 1 31 Aug 20:17:30 20:21:56 75° 83° (E) 20:26:16
Cosmos 2504 31 Aug 20:19:50 20:25:04 22° 278° (W) 20:30:19 435.465 / 435.565
AAUSAT CUBESAT 2 31 Aug 20:26:09 20:30:02 44° 73° (ENE) 20:33:58 437.432
FUNcube-1 31 Aug 20:28:21 20:31:24 19° 67° (ENE) 20:34:25 145.935
AIST 2 31 Aug 20:30:02 20:34:14 78° 57° (ENE) 20:38:25 435.215
COMPASS 1 31 Aug 20:38:37 20:42:43 80° 79° (ENE) 20:46:53 437.405
CANX-2 31 Aug 20:39:23 20:43:20 40° 262° (W) 20:47:19 2200.000
CUTE 1.7 + AOD 2 31 Aug 20:44:32 20:48:30 40° 262° (W) 20:52:29 437.475
UWE-3 31 Aug 20:46:56 20:51:18 49° 73° (ENE) 20:55:34 435.000/436.395/437.385
Cosmos 2491 31 Aug 20:50:25 20:54:53 15° 302° (WNW) 20:59:23 435.465 / 435.565
ZACube-1 31 Aug 20:51:22 20:55:22 35° 71° (ENE) 20:59:18 437.345
CUBEBUG 2 31 Aug 20:58:49 21:03:29 82° 258° (WSW) 21:08:02 437.445
PRISM 31 Aug 21:02:49 21:05:52 19° 94° (E) 21:08:53 437.425
CINEMA 3 31 Aug 21:13:30 21:17:06 20° 268° (W) 21:20:40 145.822/145.860
DELFI C3 31 Aug 21:26:05 21:29:36 32° 71° (ENE) 21:33:07 145.870
GONETS M04 31 Aug 21:26:18 21:32:15 19° 62° (ENE) 21:38:08
HO-68 31 Aug 21:27:19 21:33:15 27° 266° (W) 21:39:14 435.675
O/OREOS (USA 219) 31 Aug 21:42:45 21:43:30 10° 49° (NE) 21:44:16 437.305
PCSat 31 Aug 21:44:07 21:48:30 25° 252° (WSW) 21:52:51 145.827
SEEDS 31 Aug 21:46:25 21:48:15 13° 270° (W) 21:50:05 437.485
STRAND 1 31 Aug 21:46:47 21:50:29 20° 296° (WNW) 21:54:10 437.568
Oscar 11 31 Aug 21:49:12 21:53:24 53° 260° (W) 21:57:37 145.826/435.025
AUBIESAT-1 31 Aug 21:56:48 21:59:10 14° 57° (ENE) 22:01:31 437.475
SO-50 31 Aug 21:57:42 22:01:14 20° 111° (ESE) 22:04:46 436.795
FUNcube-1 31 Aug 22:03:13 22:07:22 40° 262° (W) 22:11:27 145.935
AAUSAT CUBESAT 2 31 Aug 22:03:28 22:05:45 14° 269° (W) 22:08:02 437.432
M-CUBED/EXP-1 PRIME 31 Aug 22:05:21 22:08:49 21° 60° (ENE) 22:12:15 437.505
ANTELSAT 31 Aug 22:17:36 22:19:43 13° 91° (E) 22:21:50 437.575/2403.000
UWE-3 31 Aug 22:25:19 22:27:59 15° 268° (W) 22:30:38 435.000/436.395/437.385
ZACube-1 31 Aug 22:28:23 22:31:43 21° 266° (W) 22:35:00 437.345
HUMSAT D 31 Aug 22:32:17 22:36:26 87° 257° (WSW) 22:40:34 437.325/437.525
PRISM 31 Aug 22:37:27 22:41:15 34° 290° (WNW) 22:45:02 437.425
AISAT 31 Aug 22:43:59 22:45:54 13° 61° (ENE) 22:47:49 437.250
TIGRISAT 31 Aug 22:45:56 22:49:33 26° 96° (E) 22:53:08 435.000
ESTCUBE 1 31 Aug 22:53:13 22:56:57 27° 68° (ENE) 23:00:43 437.505/2401.250
DELFI C3 31 Aug 23:01:45 23:04:30 18° 267° (W) 23:07:17 145.870
Cosmos 2499 31 Aug 23:08:28 23:15:26 59° 79° (ENE) 23:22:32 435.465 / 435.565
UNISAT 6 31 Aug 23:15:43 23:19:57 62° 101° (E) 23:24:10 437.425
SPROUT 31 Aug 23:15:44 23:17:32 12° 63° (ENE) 23:19:20 437.525
CUBEBUG 1 31 Aug 23:18:02 23:21:55 31° 69° (ENE) 23:25:51 437.445
O/OREOS (USA 219) 31 Aug 23:19:02 23:23:40 83° 66° (ENE) 23:28:17 437.305
GONETS M04 31 Aug 23:21:28 23:30:23 89° 80° (E) 23:39:14
CUSAT 1 31 Aug 23:21:28 23:24:36 78° 96° (E) 23:28:39 437.405
RS-15 31 Aug 23:21:35 23:29:42 23° 99° (E) 23:38:03 29.354- 29.394
DANDE 31 Aug 23:23:17 23:24:43 13° 87° (E) 23:26:15 436.750
VELOX 1 31 Aug 23:28:22 23:32:21 33° 70° (ENE) 23:36:22 145.980
AUBIESAT-1 31 Aug 23:28:24 23:33:03 73° 253° (WSW) 23:37:39 437.475
DX 1 31 Aug 23:30:00 23:33:30 24° 67° (ENE) 23:37:02 434.975-435.025
QB50P2 31 Aug 23:34:24 23:36:41 14° 92° (E) 23:38:56 145.880/145.840
SO-50 31 Aug 23:36:39 23:41:22 51° 307° (NW) 23:46:05 436.795
POLYITAN 1 31 Aug 23:36:53 23:39:10 14° 92° (E) 23:41:26 437.675
M-CUBED/EXP-1 PRIME 31 Aug 23:38:26 23:42:58 48° 256° (WSW) 23:47:30 437.505
NANOSAT C BR1 31 Aug 23:40:52 23:43:15 15° 92° (E) 23:45:38 145.865
ANTELSAT 31 Aug 23:52:36 23:56:44 50° 287° (WNW) 00:00:51 437.575/2403.000
UKube-1 01 Sep 00:00:41 00:04:42 39° 70° (ENE) 00:08:44 .
50 SAT 01 Sep 00:03:57 00:07:31 84° 74° (ENE) 00:11:07 437.505
AISAT 01 Sep 00:17:20 00:21:47 68° 258° (WSW) 00:26:16 437.250
TIGRISAT 01 Sep 00:22:39 00:26:10 26° 292° (WNW) 00:29:40 435.000
QB50P1 01 Sep 00:26:26 00:30:33 52° 100° (E) 00:34:38 145.935-145.965
ESTCUBE 1 01 Sep 00:29:47 00:33:39 29° 264° (W) 00:37:34 437.505/2401.250
PHONESAT 2.4 01 Sep 00:31:27 00:34:14 34° 160° (SSE) 00:37:01 2401.200-2431.200
POPSAT HIP 1 01 Sep 00:36:52 00:41:05 68° 101° (ESE) 00:45:14 437.405
SPROUT 01 Sep 00:48:39 00:52:56 64° 259° (W) 00:57:14 437.525
JAS-2 01 Sep 00:48:45 00:55:39 52° 99° (E) 01:03:08 435.910
TISAT 1 01 Sep 00:50:48 00:54:27 28° 69° (ENE) 00:58:06 437.305
UNISAT 6 01 Sep 00:54:26 00:56:09 12° 297° (WNW) 00:57:50 437.425
CUBEBUG 1 01 Sep 00:54:40 00:58:13 24° 265° (W) 01:01:47 437.445
DUCHIFAT 1 01 Sep 00:58:48 01:03:00 75° 284° (WNW) 01:07:09 145.980
Cosmos 2499 01 Sep 01:02:41 01:07:57 23° 277° (W) 01:13:18 435.465 / 435.565
VELOX 1 01 Sep 01:05:22 01:08:51 22° 265° (W) 01:12:23 145.980
DX 1 01 Sep 01:05:39 01:09:33 31° 263° (W) 01:13:27 434.975-435.025
DANDE 01 Sep 01:05:47 01:07:21 14° 292° (WNW) 01:09:02 436.750
SWISSCUBE 01 Sep 01:07:06 01:08:19 11° 59° (ENE) 01:09:33 437.505
QB50P2 01 Sep 01:08:41 01:12:44 47° 288° (WNW) 01:16:46 145.880/145.840
POLYITAN 1 01 Sep 01:11:11 01:15:14 46° 287° (WNW) 01:19:13 437.675
NANOSAT C BR1 01 Sep 01:15:13 01:19:13 45° 288° (WNW) 01:23:12 145.865
GONETS M04 01 Sep 01:20:27 01:25:55 18° 283° (WNW) 01:31:22
BEESAT 01 Sep 01:22:14 01:24:44 14° 61° (ENE) 01:27:14 436.000
SO-50 01 Sep 01:22:18 01:22:58 10° 327° (NNW) 01:23:37 436.795
RS-15 01 Sep 01:28:47 01:40:21 89° 120° (ESE) 01:52:36 29.354- 29.394
BUGSAT 1 01 Sep 01:34:01 01:38:08 71° 284° (WNW) 01:42:09 437.445
UKube-1 01 Sep 01:37:51 01:40:52 18° 266° (W) 01:43:54 .
QB50P1 01 Sep 02:03:39 02:05:53 14° 296° (WNW) 02:08:06 145.935-145.965
PHONESAT 2.4 01 Sep 02:07:24 02:10:24 79° 179° (S) 02:13:25 2401.200-2431.200
ITUPSAT 1 01 Sep 02:10:38 02:15:05 41° 70° (ENE) 02:19:32 437.325
POPSAT HIP 1 01 Sep 02:15:02 02:16:17 11° 298° (WNW) 02:17:31 437.405
Oscar 19 01 Sep 02:18:03 02:23:10 54° 100° (E) 02:28:14 437.125/150
TISAT 1 01 Sep 02:26:35 02:30:03 24° 265° (W) 02:33:32 437.305
Gurwin Techsat 1B 01 Sep 02:28:23 02:33:06 31° 96° (E) 02:37:47 435.225
JAS-2 01 Sep 02:34:18 02:40:24 33° 295° (WNW) 02:46:59 435.910
SWISSCUBE 01 Sep 02:40:38 02:45:22 88° 255° (WSW) 02:50:09 437.505
BEESAT 01 Sep 02:57:14 03:01:57 66° 258° (WSW) 03:06:43 436.000
Cosmos 2491 01 Sep 03:05:41 03:07:39 11° 54° (NE) 03:09:36 435.465 / 435.565
KKS-1 01 Sep 03:23:26 03:27:10 26° 67° (ENE) 03:30:54 437.445
AO-85 01 Sep 03:36:17 03:40:10 21° 111° (ESE) 03:43:56 145.980
ITAMSAT 1 01 Sep 03:43:00 03:47:59 46° 99° (E) 03:52:56 435.822/435.867
PHONESAT 2.4 01 Sep 03:43:43 03:46:41 58° 193° (SSW) 03:49:38 2401.200-2431.200
RS-15 01 Sep 03:44:08 03:54:35 35° 328° (NNW) 04:05:29 29.354- 29.394
STARS 01 Sep 03:46:03 03:49:29 22° 66° (ENE) 03:52:56 437.465
ITUPSAT 1 01 Sep 03:49:30 03:53:03 21° 266° (W) 03:56:38 437.325
Oscar 19 01 Sep 03:58:23 04:02:03 20° 297° (WNW) 04:05:42 437.125/150
CUBESAT XI-V 01 Sep 04:03:49 04:05:33 12° 61° (ENE) 04:07:19 437.345
MOZHAYETS 4 01 Sep 04:04:09 04:08:42 89° 92° (E) 04:13:17
Gurwin Techsat 1B 01 Sep 04:08:18 04:13:00 33° 293° (WNW) 04:17:41 435.225
YUBILEINY 01 Sep 04:20:36 04:23:00 11° 73° (ENE) 04:25:24 435.215
AO-7 01 Sep 04:36:11 04:44:23 59° 103° (ESE) 04:52:30 29.400- 29.500
Cosmos 2491 01 Sep 04:58:02 05:06:44 58° 77° (ENE) 05:15:24 435.465 / 435.565
KKS-1 01 Sep 04:59:42 05:03:36 29° 263° (W) 05:07:33 437.445
AO-85 01 Sep 05:15:08 05:20:20 56° 306° (NW) 05:25:15 145.980
PHONESAT 2.4 01 Sep 05:20:35 05:22:40 17° 208° (SSW) 05:24:43 2401.200-2431.200
BRITE-PL 01 Sep 05:21:30 05:23:55 13° 86° (E) 05:26:19 437.365/2234.400
STARS 01 Sep 05:21:36 05:25:38 34° 262° (W) 05:29:41 437.465
ITAMSAT 1 01 Sep 05:23:10 05:27:09 23° 296° (WNW) 05:31:07 435.822/435.867
CUBESAT XI-V 01 Sep 05:37:41 05:42:17 76° 257° (WSW) 05:46:57 437.345
RS-15 01 Sep 06:03:20 06:12:21 23° 3° (N) 06:21:28 29.354- 29.394
ISS 01 Sep 06:08:15 06:09:14 11° 129° (SE) 06:10:14 145.825
YUBILEINY 01 Sep 06:09:16 06:17:58 67° 93° (E) 06:26:41 435.215
GOMX 1 01 Sep 06:09:22 06:12:24 15° 88° (E) 06:15:20 467.674
HORYU 2 01 Sep 06:12:05 06:16:31 77° 102° (ESE) 06:20:55 437.375
SO-50 01 Sep 06:28:31 06:31:58 20° 42° (NE) 06:35:20 436.795
AO-7 01 Sep 06:29:34 06:36:43 33° 302° (WNW) 06:43:49 29.400- 29.500
NOAA 18 01 Sep 06:42:44 06:47:13 26° 95° (E) 06:51:41 137.9125
NOAA 15 01 Sep 06:44:03 06:49:01 39° 98° (E) 06:53:57 137.62
Cubesat XI-IV 01 Sep 06:49:22 06:54:11 34° 97° (E) 06:58:58 437.490
Cosmos 2491 01 Sep 06:55:40 07:03:02 31° 277° (W) 07:10:25 435.465 / 435.565
BRITE-PL 01 Sep 06:57:21 07:03:05 85° 284° (WNW) 07:08:34 437.365/2234.400
CUTE-I 01 Sep 06:59:25 07:04:28 42° 99° (E) 07:09:28 437.470
AO-85 01 Sep 07:00:11 07:01:47 11° 325° (NW) 07:03:22 145.980
Cosmos 2504 01 Sep 07:02:29 07:10:30 54° 91° (E) 07:18:00 435.465 / 435.565
LilacSat-2 01 Sep 07:05:34 07:09:15 49° 100° (E) 07:12:54 437.200
STRAND 1 01 Sep 07:22:23 07:27:28 72° 73° (ENE) 07:32:33 437.568
DOVE 4 01 Sep 07:26:48 07:31:22 37° 96° (E) 07:35:39 437.250
BEESAT 3 01 Sep 07:41:49 07:43:19 12° 109° (ESE) 07:44:48 437.485
ISS 01 Sep 07:41:58 07:45:15 81° 322° (NW) 07:48:32 145.825
GOMX 1 01 Sep 07:45:41 07:50:59 64° 286° (WNW) 07:55:57 467.674
HORYU 2 01 Sep 07:51:15 07:52:26 11° 299° (WNW) 07:53:36 437.375
PRISM 01 Sep 07:53:00 07:55:17 15° 64° (ENE) 07:57:34 437.425
YUBILEINY 01 Sep 08:08:14 08:15:27 27° 293° (WNW) 08:22:42 435.215
SO-50 01 Sep 08:08:17 08:12:48 56° 241° (WSW) 08:17:09 436.795
CUSAT 1 01 Sep 08:12:35 08:15:16 12° 62° (ENE) 08:18:03 437.405
RS-15 01 Sep 08:18:28 08:29:48 39° 37° (NE) 08:41:00 29.354- 29.394
NOAA 18 01 Sep 08:22:53 08:28:00 42° 292° (WNW) 08:33:05 137.9125
COMPASS 1 01 Sep 08:23:10 08:25:06 13° 91° (E) 08:27:03 437.405
NOAA 15 01 Sep 08:24:10 08:28:36 28° 295° (WNW) 08:33:02 137.62
CANX-2 01 Sep 08:24:17 08:28:08 32° 97° (E) 08:31:59 2200.000
CUTE 1.7 + AOD 2 01 Sep 08:29:21 08:33:11 32° 97° (E) 08:37:00 437.475
Cubesat XI-IV 01 Sep 08:29:32 08:34:10 31° 293° (WNW) 08:38:46 437.490
BRITE-PL 01 Sep 08:38:05 08:40:37 13° 302° (WNW) 08:43:07 437.365/2234.400
CUTE-I 01 Sep 08:39:58 08:44:15 25° 295° (WNW) 08:48:31 437.470
LilacSat-2 01 Sep 08:41:42 08:43:06 12° 296° (WNW) 08:44:30 437.200
AIST 1 01 Sep 08:46:29 08:50:36 43° 92° (E) 08:54:47
CUBEBUG 2 01 Sep 08:50:48 08:53:49 19° 93° (E) 08:56:48 437.445
HO-68 01 Sep 08:53:21 09:00:27 60° 102° (ESE) 09:07:28 435.675
Cosmos 2504 01 Sep 08:57:03 09:04:08 31° 289° (WNW) 09:10:51 435.465 / 435.565
STRAND 1 01 Sep 09:04:48 09:07:08 13° 270° (W) 09:09:28 437.568
DOVE 4 01 Sep 09:04:54 09:08:48 24° 295° (WNW) 09:12:32 437.250
CINEMA 3 01 Sep 09:07:05 09:11:30 71° 284° (WNW) 09:15:43 145.822/145.860
BEESAT 2 01 Sep 09:09:05 09:12:57 58° 119° (ESE) 09:16:52 435.950
BEESAT 3 01 Sep 09:16:37 09:20:28 57° 305° (NW) 09:24:21 437.485
ANTELSAT 01 Sep 09:16:39 09:18:58 14° 64° (ENE) 09:21:17 437.575/2403.000
ISS 01 Sep 09:19:43 09:22:08 19° 343° (NNW) 09:24:33 145.825
